Temperature
26 26 24 23 23 23 22 21 21 20 20 20 20 20 20 20 20 20 20 19 19 18 18 18 17 17 16 16 16 16 16 16 16 16 17 17 18 18 19 19 19 19 19
22 21 20 20 20 19 20 20 20 20 20 20 20 20 21 21 20 20 20 19 19 18 18 17 17 17 16 16 16 16 15 16 16 16 16 16 17 18 19 19 19 19 19
19 18 18 18 18 18 18 19 19 19 19 19 20 20 20 20 20 20 20 19 18 18 18 18 18 17 17 16 16 16 15 15 15 15 15 16 17 17 18 19 19 19 19
17 17 17 17 17 18 18 19 19 19 19 19 19 19 19 20 20 20 20 19 19 18 18 18 17 17 17 16 16 15 15 15 15 15 15 15 15 15 16 18 19 19 19
16 16 16 16 17 17 18 18 18 18 18 18 19 19 19 19 19 19 19 19 18 18 17 17 17 17 17 16 15 16 16 15 15 15 15 15 15 15 15 16 17 18 19
17 16 16 15 15 16 16 16 17 17 17 18 18 18 18 18 18 18 18 18 18 18 17 17 17 17 17 16 16 15 15 15 15 15 15 14 14 15 15 15 16 17 18
17 16 16 15 15 15 15 15 16 16 16 16 16 16 16 16 17 17 17 17 17 17 17 17 17 17 16 16 16 15 15 15 15 15 14 14 14 15 15 15 15 16 17
18 17 16 15 15 15 14 15 15 15 15 16 15 15 15 15 15 16 16 16 16 17 17 16 16 16 16 15 15 15 15 15 15 14 14 14 14 14 15 15 15 15 16
18 18 17 16 15 15 14 14 14 15 15 15 15 15 15 15 15 15 15 15 15 15 16 15 15 15 15 15 15 15 15 15 14 14 14 14 14 14 14 15 15 15 14
18 17 17 16 15 15 14 14 13 13 13 13 14 13 14 14 14 14 14 14 15 15 15 15 15 15 14 14 14 14 14 14 14 14 14 14 14 14 14 14 15 15 15
17 16 16 16 15 15 14 14 13 12 12 12 12 12 12 12 12 13 13 13 13 14 14 14 14 14 14 14 14 14 14 14 14 14 14 14 14 14 14 14 15 15 15
16 16 15 15 14 14 13 13 12 12 11 11 11 11 11 11 11 11 11 12 12 12 13 13 13 14 14 14 14 14 14 14 14 14 14 14 14 14 14 14 14 15 14
16 16 15 15 14 13 13 12 12 11 11 11 11 10 10 10 10 10 10 11 11 11 12 12 12 13 13 13 14 14 14 14 13 13 13 13 13 14 14 14 14 14 14
16 16 16 15 14 13 13 12 12 12 11 11 11 10 10 10 10 10 10 10 10 10 10 11 11 12 12 13 13 13 13 13 13 13 13 13 13 13 14 14 14 13 13
17 16 15 15 14 14 13 13 12 12 11 11 11 11 10 10 10 10 9 9 9 9 10 10 10 11 11 12 12 13 13 13 13 13 13 13 13 13 13 13 13 13 13
16 15 15 14 13 13 13 12 12 12 11 11 11 11 10 10 10 10 9 9 9 9 9 9 9 10 10 11 12 12 13 13 13 13 13 13 13 13 13 13 12 12 12
15 14 14 13 13 12 12 12 11 11 11 11 11 10 10 10 10 10 10 9 9 9 9 9 9 9 10 10 11 11 12 12 13 12 12 12 12 12 12 12 12 12 12
14 13 13 13 12 12 12 11 11 11 10 10 10 10 10 10 10 10 9 9 9 9 9 9 9 9 9 10 10 11 11 12 12 12 12 12 12 12 12 11 11 11 11
13 13 12 12 12 11 11 11 10 10 10 9 9 9 9 9 9 9 9 9 9 9 8 8 9 9 9 9 10 10 11 11 12 12 12 12 12 12 11 11 11 11 11
13 12 12 12 11 11 11 10 10 9 9 9 8 8 8 8 8 8 8 8 8 8 8 8 8 9 9 9 9 10 10 10 11 11 12 12 12 12 11 11 11 11 11
12 12 12 11 11 10 10 9 9 8 8 8 7 7 7 7 7 7 8 8 8 8 8 8 8 8 9 9 9 9 9 10 10 11 11 11 11 11 11 11 11 11 11
12 12 11 10 10 9 8 8 7 7 7 6 6 6 6 6 7 7 7 7 7 7 8 8 8 8 9 9 9 9 9 10 10 11 11 11 11 11 11 11 11 11 11
11 11 10 9 8 7 7 6 6 5 5 5 5 5 5 6 6 6 6 7 7 7 7 8 8 8 9 9 9 9 9 9 9 10 11 11 11 11 11 11 11 11 11
10 9 8 7 6 5 5 5 5 4 4 4 5 5 5 5 5 6 6 6 7 7 8 8 8 8 8 8 8 8 9 9 9 9 10 11 11 11 11 11 11 11 11
8 7 5 5 4 4 4 4 4 4 4 4 4 4 5 5 5 6 6 6 7 7 7 8 8 8 8 8 8 8 8 8 8 9 10 10 10 10 10 11 11 11 11
6 5 4 4 4 4 4 4 4 4 4 4 4 4 5 5 5 6 6 6 7 7 7 8 8 8 8 8 8 8 8 7 8 9 10 10 10 10 10 10 11 11 11
Wind_Speed
4 1 2 3 1 5 9 9 8 7 5 5 5 5 4 3 3 3 5 5 2 2 2 4 4 5 5 5 6 6 8 7 7 7 8 9 10 10 10 11 10 12 11
14 17 17 13 14 12 7 6 8 6 4 3 2 2 2 1 1 2 4 4 3 1 3 2 3 5 5 6 7 6 5 6 7 6 8 7 8 7 11 10 11 12 10
15 13 12 13 15 15 14 8 5 3 2 3 2 2 2 1 2 3 4 5 3 2 1 2 4 5 5 6 6 6 7 6 6 6 5 5 5 7 7 8 7 8 8
14 12 12 11 9 10 9 10 8 4 3 1 2 3 3 3 2 1 2 5 5 4 4 4 4 4 5 6 7 6 5 6 7 6 6 7 8 7 7 8 8 7 7
16 15 15 12 11 11 10 10 10 10 9 7 6 5 5 5 4 3 1 3 4 6 6 6 5 4 5 6 6 6 6 6 7 7 7 8 7 8 7 9 8 7 5
16 16 15 14 12 12 11 11 11 11 11 11 9 8 8 8 8 8 7 4 4 5 7 7 5 4 5 6 6 6 7 7 7 7 7 7 7 7 6 8 8 7 6
14 14 14 13 12 13 13 12 12 12 12 13 12 10 9 8 7 7 7 7 5 4 4 4 3 4 5 6 6 7 7 8 8 8 7 7 7 8 8 8 8 7 4
11 11 11 11 11 11 11 10 10 9 9 9 9 9 9 8 7 8 8 7 6 5 3 1 3 5 6 7 6 6 8 7 7 9 8 7 7 7 7 7 7 6 5
10 10 9 9 8 8 7 7 6 6 7 7 6 6 7 7 8 9 8 7 7 8 7 5 5 6 7 7 7 6 8 8 7 7 8 7 6 6 7 7 7 6 5
10 11 10 9 8 7 5 4 4 4 5 6 6 7 6 6 7 7 8 8 8 8 9 9 8 8 8 8 8 7 8 7 7 6 7 7 6 6 6 6 7 7 7
11 11 12 12 11 10 8 6 6 6 6 6 6 7 7 8 8 7 7 7 8 8 9 9 9 9 9 9 8 8 9 8 7 7 7 7 7 5 5 5 6 6 6
12 13 14 13 12 12 11 10 9 8 8 7 7 7 7 8 9 9 8 8 9 9 9 9 9 10 11 9 9 9 9 7 7 6 6 6 5 5 4 4 5 5 5
14 15 14 12 12 11 10 10 11 11 10 9 8 8 9 9 9 10 9 9 10 10 10 10 10 10 11 10 10 10 9 7 6 5 4 4 4 4 3 3 2 2 4
16 17 13 10 9 9 9 10 11 11 11 10 10 9 10 10 10 10 10 10 10 10 10 10 10 11 11 11 11 11 9 7 6 4 3 2 1 1 1 1 0 3 6
21 16 12 10 10 10 9 10 10 9 10 10 10 10 10 10 10 11 11 11 11 13 11 10 10 10 11 11 11 10 10 7 6 4 2 2 4 3 2 2 3 4 6
19 17 16 14 13 12 12 12 11 10 10 11 11 10 10 10 10 10 11 11 11 12 11 11 10 10 12 12 12 10 8 6 5 5 5 6 6 7 8 8 7 6 8
20 21 19 15 12 13 11 11 11 10 10 10 11 11 11 11 10 12 11 10 10 11 11 10 10 10 10 12 13 12 9 7 6 6 7 7 8 8 7 8 9 8 8
24 21 19 18 17 15 15 12 14 12 12 12 12 11 11 12 11 10 10 10 9 9 9 10 11 10 11 10 11 12 11 9 7 8 8 8 10 9 9 8 8 7 7
19 18 20 22 18 17 16 14 14 14 14 14 13 12 12 12 11 11 10 9 9 9 9 10 11 10 9 8 9 10 9 9 8 9 10 11 11 13 12 10 10 10 9
19 19 21 20 16 15 14 14 17 16 16 15 13 13 13 13 13 12 11 10 9 9 10 11 11 11 9 7 8 10 8 9 8 8 10 13 13 15 13 10 11 11 10
21 19 18 16 13 13 13 15 16 17 16 15 14 14 13 13 13 12 11 10 11 11 11 11 10 10 9 8 9 11 8 8 8 10 9 10 16 16 13 11 9 12 11
23 21 16 15 13 13 14 16 16 16 15 16 16 15 14 16 16 11 11 11 11 11 11 11 12 10 8 8 9 12 12 10 7 9 10 12 18 16 13 10 14 16 13
21 20 19 19 17 16 15 18 18 17 17 17 17 16 16 14 14 13 12 11 10 11 11 10 10 8 5 5 8 10 10 10 7 5 12 18 18 16 11 13 16 13 7
22 21 22 23 22 21 19 18 18 17 17 18 17 15 14 14 13 11 11 11 11 10 10 9 8 5 3 3 3 4 4 5 5 6 14 19 17 11 12 11 10 7 5
21 22 22 23 25 23 21 20 19 17 17 17 15 14 13 13 12 11 10 11 10 9 7 6 5 4 3 3 5 5 5 5 5 11 11 11 10 10 9 8 7 6 4
23 23 24 24 24 23 23 21 19 16 15 14 13 11 10 10 10 10 10 12 12 10 8 5 3 3 5 6 6 6 7 5 9 12 12 12 11 11 11 10 8 6 6
Wind_Direction
216 155 47 4 34 133 142 149 145 140 160 173 177 183 174 187 175 159 125 112 97 15 19 302 323 310 292 308 316 310 304 299 287 280 279 268 258 248 238 234 236 238 237
30 27 25 21 24 15 50 97 118 144 184 164 164 147 114 168 167 107 116 147 170 160 279 333 329 310 317 302 281 279 282 288 294 295 296 290 281 267 258 235 226 228 231
55 45 35 25 28 25 26 20 66 118 231 149 195 213 141 219 242 191 176 160 142 155 234 291 285 297 295 290 313 308 291 292 295 288 287 295 293 314 299 297 268 236 224
57 61 59 55 42 43 37 22 19 31 7 354 319 311 282 262 259 219 178 146 160 192 203 226 247 265 281 293 293 303 321 301 292 290 276 268 280 291 300 306 304 289 251
56 54 57 56 48 46 47 38 30 21 6 2 356 334 306 302 305 316 218 161 198 198 203 208 217 244 263 272 279 291 283 282 283 288 292 290 288 271 268 284 293 303 305
62 59 57 56 53 50 48 46 41 35 23 16 6 353 333 322 317 317 311 285 249 217 206 198 196 223 251 271 280 276 274 270 273 276 279 281 280 279 271 270 278 282 283
61 58 54 51 50 48 47 44 40 34 30 28 16 7 350 336 321 311 298 286 275 258 221 202 182 229 258 267 267 269 269 272 273 273 270 271 272 275 274 273 277 279 287
52 53 52 49 44 43 40 38 36 30 25 28 16 13 8 355 346 344 327 312 304 302 319 258 227 237 249 263 268 276 274 272 273 280 277 273 270 267 268 267 270 276 271
26 27 29 31 30 28 32 29 25 16 8 5 356 358 3 353 347 337 330 328 328 316 319 306 270 253 251 254 261 265 270 275 275 277 280 278 272 265 263 258 248 242 248
3 3 358 356 356 348 350 357 351 343 334 331 331 332 340 330 327 326 332 332 330 324 316 305 293 279 265 256 254 260 265 272 274 271 272 276 277 274 271 260 249 233 226
342 339 335 333 329 326 329 336 337 332 325 322 320 319 317 317 316 309 311 317 318 318 314 304 291 281 274 265 257 258 264 269 277 284 288 288 285 279 271 264 252 237 215
321 319 318 317 315 316 320 321 322 316 309 305 301 299 300 302 301 301 306 309 307 305 305 305 298 284 275 268 265 263 267 272 277 282 290 294 297 294 285 271 254 234 201
313 308 303 299 296 294 292 290 289 285 279 276 273 274 275 278 281 284 287 289 290 292 294 297 298 295 285 275 269 264 262 264 270 277 285 295 306 306 299 285 261 197 158
311 307 303 297 293 288 281 276 275 272 274 268 264 261 262 263 264 267 270 273 276 279 280 282 287 292 293 282 271 265 260 257 258 262 267 284 332 330 318 310 140 135 133
311 311 316 320 315 307 297 292 285 279 277 273 269 264 258 256 257 259 260 262 265 271 273 275 280 286 289 280 277 268 260 247 238 227 197 114 94 77 81 119 124 133 134
320 327 325 319 314 310 305 299 292 286 276 271 271 270 264 262 260 259 259 258 258 260 261 265 270 275 282 297 303 286 267 250 229 204 161 141 125 107 92 88 91 114 136
330 323 318 313 306 301 295 289 290 289 286 281 280 275 272 270 265 269 267 263 263 264 262 262 264 267 275 283 281 273 263 241 219 196 176 171 148 140 123 108 100 94 106
320 316 313 310 304 302 300 297 298 294 290 285 283 280 275 275 271 265 263 263 263 265 270 269 266 263 269 280 274 264 256 242 216 191 179 161 156 154 146 135 115 95 88
313 311 308 305 301 299 298 294 293 292 289 287 284 284 281 279 275 271 268 267 266 265 267 270 265 260 258 259 256 247 252 238 212 187 171 163 160 156 153 138 121 109 96
311 305 303 300 297 297 297 293 291 289 286 286 285 284 280 277 275 272 270 271 268 266 265 265 264 261 257 250 236 227 243 237 207 178 166 166 158 158 157 145 136 129 126
308 306 303 301 300 298 294 290 290 287 288 289 287 285 280 276 273 269 266 265 265 266 263 264 266 261 254 250 226 214 227 241 208 178 166 159 152 153 152 146 139 138 135
311 311 310 307 307 308 305 300 296 295 294 291 287 282 278 276 273 265 263 261 261 262 261 258 259 256 245 238 218 210 217 240 231 188 162 154 152 148 145 141 143 147 145
318 320 320 316 314 312 308 301 298 296 291 286 280 277 275 271 268 265 262 260 256 254 255 252 251 247 231 214 213 209 214 227 234 215 155 149 148 140 139 148 154 161 165
328 328 324 319 315 311 305 297 295 292 287 281 277 274 272 269 264 259 255 253 252 249 246 246 247 238 207 199 192 191 190 189 199 165 144 141 145 142 138 148 160 178 183
331 328 324 317 312 309 303 298 293 288 283 279 275 270 266 264 262 256 249 247 246 247 245 248 235 210 204 192 170 173 163 165 166 147 146 145 147 148 149 160 171 188 175
329 324 319 314 310 308 304 299 292 284 278 276 272 266 260 257 252 252 254 238 233 231 215 206 190 133 134 150 163 163 154 161 169 157 151 152 156 158 159 166 175 179 158
Height
1466 1467 1470 1471 1471 1472 1470 1475 1481 1487 1491 1493 1495 1498 1500 1501 1503 1505 1505 1506 1506 1507 1506 1506 1505 1505 1504 1504 1504 1503 1502 1501 1500 1499 1497 1495 1494 1493 1492 1492 1492 1493 1494
1467 1468 1468 1464 1469 1471 1466 1469 1477 1485 1491 1493 1495 1496 1498 1500 1501 1502 1502 1503 1503 1503 1503 1503 1502 1501 1501 1500 1500 1499 1498 1496 1497 1496 1494 1491 1490 1488 1488 1487 1486 1487 1489
1471 1472 1471 1468 1470 1471 1468 1474 1477 1485 1490 1493 1495 1496 1497 1498 1499 1499 1499 1499 1500 1500 1500 1499 1498 1498 1497 1496 1496 1496 1494 1493 1492 1492 1493 1490 1486 1485 1483 1482 1482 1482 1483
1480 1478 1477 1476 1478 1476 1478 1481 1485 1487 1489 1491 1493 1494 1495 1496 1497 1497 1497 1496 1496 1496 1496 1496 1495 1494 1494 1493 1492 1493 1491 1490 1488 1488 1488 1488 1486 1485 1480 1478 1478 1478 1478
1483 1482 1481 1482 1483 1483 1483 1483 1485 1487 1488 1489 1491 1491 1493 1493 1493 1493 1494 1494 1493 1493 1493 1493 1492 1491 1491 1490 1489 1488 1487 1486 1484 1483 1483 1482 1481 1481 1480 1476 1475 1475 1475
1484 1485 1486 1486 1485 1485 1484 1484 1485 1486 1486 1486 1487 1488 1489 1489 1489 1489 1490 1491 1491 1491 1490 1489 1488 1488 1487 1486 1486 1484 1483 1482 1480 1479 1478 1477 1477 1476 1476 1474 1473 1472 1473
1486 1487 1488 1488 1487 1486 1485 1485 1484 1484 1483 1482 1483 1483 1484 1484 1484 1485 1486 1486 1487 1488 1488 1486 1485 1484 1484 1483 1482 1481 1479 1478 1476 1475 1473 1472 1472 1472 1471 1471 1469 1469 1469
1487 1487 1488 1488 1487 1486 1485 1484 1483 1482 1482 1481 1481 1481 1480 1480 1480 1480 1481 1481 1482 1482 1482 1481 1480 1480 1479 1479 1478 1476 1475 1474 1472 1470 1469 1468 1466 1466 1466 1466 1465 1464 1464
1489 1488 1488 1487 1487 1486 1484 1483 1482 1481 1480 1479 1479 1478 1477 1476 1476 1475 1476 1476 1476 1476 1476 1476 1475 1475 1474 1474 1473 1472 1471 1470 1468 1466 1464 1463 1461 1460 1460 1460 1460 1461 1460
1491 1490 1489 1487 1486 1485 1483 1481 1480 1478 1477 1476 1475 1475 1473 1472 1471 1471 1470 1469 1469 1469 1469 1469 1469 1469 1469 1469 1468 1467 1466 1465 1463 1462 1460 1458 1456 1455 1454 1454 1454 1454 1455
1493 1492 1489 1487 1485 1483 1482 1480 1478 1476 1475 1473 1471 1470 1468 1467 1466 1465 1464 1464 1463 1463 1463 1462 1462 1462 1463 1463 1463 1462 1461 1460 1458 1457 1455 1453 1452 1450 1449 1448 1448 1448 1450
1494 1491 1489 1486 1483 1481 1479 1477 1475 1473 1471 1469 1468 1466 1464 1462 1460 1459 1458 1457 1456 1456 1456 1455 1455 1455 1456 1456 1456 1456 1456 1455 1454 1452 1451 1449 1447 1446 1444 1443 1443 1443 1444
1492 1489 1486 1482 1479 1477 1475 1473 1471 1469 1467 1464 1462 1460 1458 1456 1455 1453 1451 1450 1449 1448 1448 1448 1448 1447 1448 1448 1449 1450 1450 1449 1449 1447 1446 1445 1443 1442 1440 1439 1439 1439 1440
1487 1484 1480 1478 1475 1473 1471 1468 1466 1464 1462 1459 1457 1454 1453 1451 1449 1447 1445 1444 1442 1441 1440 1440 1440 1440 1440 1441 1442 1443 1443 1443 1443 1443 1442 1441 1440 1439 1438 1437 1436 1437 1438
1482 1478 1476 1474 1472 1469 1466 1464 1461 1458 1456 1453 1451 1448 1446 1444 1442 1440 1439 1437 1436 1435 1434 1433 1432 1432 1433 1434 1435 1436 1436 1437 1438 1438 1437 1437 1437 1436 1435 1435 1435 1436 1437
1476 1474 1472 1470 1467 1464 1461 1458 1455 1452 1449 1446 1444 1442 1440 1438 1436 1434 1432 1431 1429 1428 1428 1427 1426 1425 1426 1426 1427 1428 1429 1430 1432 1433 1433 1433 1434 1434 1434 1434 1434 1435 1437
1474 1471 1468 1464 1461 1457 1454 1450 1447 1444 1442 1439 1436 1434 1432 1430 1429 1427 1426 1425 1423 1422 1422 1421 1420 1419 1419 1419 1419 1420 1422 1424 1426 1428 1429 1430 1431 1432 1432 1433 1434 1436 1438
1470 1466 1462 1458 1454 1450 1446 1442 1439 1437 1434 1431 1428 1427 1425 1423 1421 1420 1418 1417 1417 1416 1415 1415 1414 1413 1413 1413 1412 1413 1415 1417 1420 1422 1424 1426 1428 1430 1431 1433 1435 1436 1439
1465 1460 1455 1451 1446 1442 1438 1434 1430 1428 1425 1422 1420 1418 1416 1414 1412 1411 1410 1410 1409 1408 1408 1408 1407 1407 1406 1406 1406 1407 1408 1410 1413 1416 1419 1422 1425 1427 1430 1433 1435 1437 1440
1459 1453 1447 1442 1437 1433 1429 1425 1421 1418 1415 1412 1410 1408 1406 1404 1403 1402 1401 1401 1401 1401 1401 1400 1400 1400 1400 1400 1400 1401 1401 1404 1407 1411 1414 1418 1422 1425 1429 1432 1435 1437 1441
1451 1445 1439 1433 1429 1424 1420 1415 1411 1407 1404 1402 1399 1397 1395 1394 1393 1392 1392 1392 1393 1393 1393 1393 1393 1393 1393 1394 1394 1395 1395 1398 1402 1405 1409 1414 1419 1423 1427 1431 1435 1438 1442
1442 1436 1430 1424 1420 1415 1409 1403 1399 1396 1393 1390 1387 1385 1384 1383 1383 1382 1382 1383 1384 1384 1385 1385 1385 1386 1386 1387 1387 1388 1389 1392 1396 1400 1405 1410 1416 1421 1426 1430 1435 1439 1443
1435 1429 1422 1415 1410 1405 1399 1392 1387 1384 1380 1377 1374 1373 1372 1372 1372 1372 1373 1374 1375 1376 1377 1378 1379 1379 1380 1380 1381 1381 1383 1386 1390 1395 1401 1407 1413 1419 1424 1430 1435 1439 1443
1428 1421 1414 1406 1399 1393 1387 1380 1375 1370 1367 1364 1362 1361 1360 1360 1361 1362 1364 1365 1367 1369 1370 1372 1373 1374 1374 1374 1374 1375 1377 1381 1385 1390 1398 1405 1412 1418 1423 1429 1434 1439 1443
1422 1415 1407 1398 1389 1381 1374 1368 1363 1359 1355 1353 1351 1350 1350 1351 1352 1353 1355 1357 1359 1362 1364 1366 1367 1369 1369 1370 1370 1371 1373 1377 1381 1388 1395 1402 1410 1416 1422 1428 1433 1438 1442
1416 1407 1399 1389 1380 1372 1364 1357 1352 1348 1345 1343 1342 1342 1342 1343 1344 1346 1348 1350 1353 1356 1358 1361 1363 1364 1365 1366 1367 1368 1371 1375 1381 1388 1394 1401 1408 1414 1420 1426 1432 1437 1441